Cloud_Cover
3 5 5 13 100 100 100 100 100 100 100 100 100 100 100 100 100 100 100 100 100 100 42 91 100 100 100 100 86 27 0 3 6 4 4 0 0 0 3 2 0 0 0 1
0 5 5 5 11 100 100 95 100 100 100 100 100 100 100 100 100 100 44 5 33 11 38 45 100 100 29 65 100 80 99 88 100 80 0 2 5 0 0 0 0 0 55 95
4 4 5 5 5 44 100 100 100 100 100 98 100 97 100 100 100 100 100 67 6 8 6 34 97 100 92 100 100 76 100 80 5 4 55 87 33 63 0 0 0 0 10 18
5 3 4 5 5 5 69 100 79 100 100 100 100 100 100 100 69 18 14 73 21 85 61 97 100 100 97 100 100 100 100 56 2 100 1 8 81 80 95 60 3 0 0 100
0 0 5 5 5 5 5 59 83 100 100 100 100 99 100 100 100 100 100 64 100 60 51 68 74 100 100 53 86 100 100 100 89 100 68 4 5 4 6 30 2 5 4 14
2 16 1 0 5 5 5 8 48 100 96 100 100 100 100 100 100 5 5 5 99 100 25 3 2 38 75 99 99 100 100 100 100 100 71 1 4 100 100 39 0 0 42 40
0 64 0 0 2 4 5 5 10 96 94 100 100 100 100 100 100 15 5 14 32 13 100 76 100 66 57 99 16 56 96 100 100 100 6 20 100 12 100 68 80 0 56 100
0 2 0 0 0 0 2 5 5 4 24 94 100 88 87 84 99 95 100 74 3 67 100 100 15 30 2 58 100 100 100 100 71 5 11 100 98 68 98 98 50 2 9 100
0 0 0 4 0 0 0 1 5 5 2 7 7 94 100 100 100 100 100 84 32 100 100 100 100 22 5 84 100 100 94 36 4 5 5 33 95 2 98 100 100 0 0 42
0 0 0 0 0 0 0 0 4 5 5 2 11 39 46 100 62 91 23 15 83 100 54 100 100 100 56 6 52 89 13 5 5 5 5 5 5 16 100 100 100 4 35 100
0 0 0 0 0 0 0 0 0 2 5 6 5 3 5 8 52 97 59 100 82 100 100 84 100 100 100 16 5 99 39 5 6 5 5 91 21 7 100 100 100 36 99 98
0 0 36 4 0 0 0 1 0 0 2 12 16 3 0 5 5 15 6 43 100 100 100 92 100 84 100 100 100 11 72 98 100 100 78 50 12 28 84 24 64 26 74 99
0 0 0 5 0 0 0 0 0 0 0 2 5 5 5 0 4 5 5 5 5 5 16 51 100 100 100 100 100 99 99 44 64 67 42 11 22 24 100 15 5 30 5 43
0 0 0 10 5 0 0 0 0 0 1 0 15 1 3 2 0 0 4 4 5 18 65 68 100 79 77 94 100 100 60 80 99 81 70 11 96 41 13 94 100 49 43 21
0 0 0 99 43 5 0 0 0 2 2 1 48 2 0 0 0 0 0 2 5 5 5 5 73 24 78 5 76 100 100 75 90 96 14 61 55 100 100 16 12 9 60 15
0 0 0 92 100 23 14 24 9 1 0 0 27 61 0 0 0 0 0 0 0 2 5 5 5 5 3 5 5 87 100 91 44 37 33 63 64 100 30 5 58 65 5 13
0 0 0 65 100 42 19 66 28 1 0 3 5 64 4 0 0 1 1 0 3 0 0 0 5 100 26 3 16 73 5 9 90 31 78 23 14 95 6 5 62 9 23 2
3 0 0 77 100 100 27 9 3 30 0 1 30 79 56 3 5 16 4 11 5 4 5 5 5 14 22 22 6 27 74 92 63 45 5 9 16 11 5 29 84 55 34 22
5 0 3 85 100 100 80 5 2 0 15 27 5 53 90 11 38 22 92 69 76 10 5 5 5 43 36 51 16 0 39 57 68 5 4 5 7 31 0 13 28 90 39 70
5 2 85 100 100 100 68 45 34 5 4 2 0 25 84 62 92 88 34 76 100 99 86 94 81 7 22 97 42 10 4 5 7 99 5 4 50 62 5 19 13 0 0 25
18 90 93 100 100 100 76 18 35 9 10 2 0 43 100 45 98 60 73 48 57 10 12 64 22 63 64 100 74 4 3 0 0 4 2 5 100 46 99 56 76 0 0 0
62 82 100 100 100 100 65 14 44 76 100 69 55 94 53 96 24 8 57 75 100 84 89 81 72 19 89 63 51 44 1 0 0 26 40 49 40 4 6 45 39 4 3 0
28 98 100 100 100 100 50 5 54 95 69 84 92 66 96 82 32 75 100 71 24 98 86 71 29 41 67 60 23 8 0 0 0 0 4 39 88 27 28 3 74 8 9 3
95 100 100 100 100 69 48 100 100 73 91 100 97 60 28 48 51 100 100 94 94 9 39 81 74 88 100 95 81 87 69 30 0 3 5 5 5 81 6 8 3 90 64 86
100 100 100 100 74 100 100 35 45 94 67 100 99 55 81 92 96 98 100 99 24 25 98 94 60 83 97 97 96 37 100 100 100 8 2 5 64 43 5 5 5 2 38 56
100 100 100 100 100 64 75 69 100 99 99 79 42 94 58 41 71 80 58 61 95 100 100 100 100 73 16 17 20 8 24 69 82 80 54 36 0 51 0 0 1 0 4 19
100 100 100 94 97 100 92 100 10 93 84 95 97 91 99 84 81 82 99 57 43 38 83 79 100 100 100 100 100 99 98 96 96 100 100 99 43 21 3 27 97 98 96 90